Observations for Trim Patrick St
| Time | AQI | Temp °C | Hum % | Pres Pa | CO μg/m³ | H₂S μg/m³ | NO μg/m³ | NO₂ μg/m³ | O₃ μg/m³ | SO₂ μg/m³ | PM1 μg/m³ | PM2.5 μg/m³ | PM10 μg/m³ |
|---|---|---|---|---|---|---|---|---|---|---|---|---|---|
| Sunday 2 August 2026 | |||||||||||||
| 14:13 | 2 | 26.5 | 39 | 69,021 | 0 | 10.11 | 1.19 | 23.49 | 81.43 | 10.53 | 4.57 | 10.23 | 11.26 |
| 14:12 | 2 | 26.5 | 39 | 69,029 | 0 | 12.22 | 1.12 | 25.25 | 98.9 | 10.57 | 2 | 7.87 | 8.65 |
| 14:11 | 2 | 26.5 | 39 | 69,045 | 0 | 11.1 | 1.08 | 26.35 | 120.2 | 10.66 | 4.57 | 10.22 | 11.25 |
| 14:10 | 2 | 26.5 | 40 | 69,031 | 0 | 9.07 | 1.17 | 19.64 | 76.84 | 9.79 | 2.86 | 8.62 | 9.48 |
| 14:09 | 2 | 26.5 | 40 | 69,043 | 0 | 11.28 | 1.19 | 27.22 | 107.39 | 10.36 | 3.71 | 9.43 | 10.37 |
| 14:07 | 2 | 26.6 | 39 | 69,051 | 0 | 10.4 | 1.2 | 27.17 | 89.65 | 10.19 | 4.57 | 11.05 | 12.15 |
| 14:06 | 2 | 26.6 | 39 | 69,039 | 0 | 12 | 1.27 | 22.69 | 102.7 | 10.75 | 2.86 | 9.45 | 10.4 |
| 14:05 | 2 | 26.7 | 39 | 69,053 | 0 | 9.89 | 1.27 | 24.35 | 105.4 | 11.06 | 2.86 | 9.48 | 10.43 |
| 14:04 | 2 | 26.7 | 39 | 69,065 | 0 | 9.97 | 1.26 | 17.54 | 93.33 | 11.03 | 2.86 | 9.48 | 10.43 |
| 14:03 | 2 | 26.8 | 39 | 69,059 | 0 | 8.39 | 1.3 | 24.51 | 103.06 | 10.55 | 3.71 | 9.47 | 10.42 |
| 14:02 | 2 | 26.9 | 39 | 69,076 | 0 | 6.01 | 1.29 | 17.95 | 82.53 | 10.66 | 3.71 | 9.47 | 10.42 |
| 14:01 | 2 | 26.9 | 38 | 69,076 | 0 | 6.01 | 1.27 | 18.8 | 91.61 | 10.41 | 2.86 | 8.71 | 9.59 |
| 13:59 | 2 | 27 | 38 | 69,063 | 0 | 7.79 | 1.25 | 18.63 | 93.24 | 10.77 | 3.71 | 10.3 | 11.33 |
| 13:57 | 2 | 27.1 | 38 | 69,071 | 0 | 7.54 | 1.29 | 20.13 | 130.62 | 11.28 | 4.57 | 10.34 | 11.37 |
| 13:56 | 2 | 27.2 | 38 | 69,065 | 0 | 6.17 | 1.34 | 14.63 | 81.4 | 11.56 | 2.86 | 8.73 | 9.6 |
| 13:54 | 2 | 27.3 | 38 | 69,080 | 0 | 2.33 | 1.37 | 16.91 | 77.52 | 10.31 | 3.71 | 9.55 | 10.51 |
| 13:53 | 2 | 27.3 | 37 | 69,072 | 0 | 3.58 | 1.4 | 22.8 | 99.62 | 9.96 | 2.86 | 8.81 | 9.7 |
| 13:51 | 2 | 27.4 | 37 | 69,084 | 0 | 0.13 | 1.38 | 21.26 | 90.69 | 9.87 | 6.29 | 12.78 | 14.06 |
| 13:49 | 2 | 27.5 | 38 | 69,104 | 0 | 5.65 | 1.45 | 20.02 | 116.27 | 12.13 | 4.57 | 10.35 | 11.39 |
| 13:45 | 2 | 27.7 | 37 | 69,126 | 0 | 0 | 1.36 | 19.84 | 87.21 | 10.56 | 2.86 | 8.81 | 9.7 |